Regional Weather Roundup
Issued by NWS

Home | Current Version | Previous Version | Text Only | Print | Product List | Glossary Off
Versions: 1 2 3 4 5 6 7 8 9 10 11 12 13 14 15 16 17 18 19 20 21 22 23 24 25 26 27 28 29 30 31 32 33 34 35 36 37 38 39 40 41 42 43 44 45 46 47 48 49 50

000
ASUS43 KDMX 112208
RWRIA

WEATHER ROUNDUP FOR IOWA
NATIONAL WEATHER SERVICE DES MOINES IA
400 PM CST THU FEB 11 2016

NOTE: "FAIR" INDICATES FEW OR NO CLOUDS BELOW 12,000 FEET WITH NO
SIGNIFICANT WEATHER AND/OR OBSTRUCTIONS TO VISIBILITY.

* - THESE STATIONS ARE NOT NWS STATIONS...THUS NOT UNDER NWS
QUALITY CONTROL.  THEY ALSO DO NOT REPORT WEATHER SUCH
AS PRECIPITATION OR FOG.

IAZ001>003-012>014-020>022-031>034-043>046-112300-
   NORTHWEST IOWA

CITY           SKY/WX    TMP DP  RH WIND       PRES   REMARKS
CARROLL *      LGT SNOW  16  10  79 E7        30.21S WCI   6
CHEROKEE *     LGT SNOW  16  12  86 SE8       30.19F WCI   5
DENISON *      LGT SNOW  16  14  93 SE5       30.18S WCI   9
LE MARS *      LGT SNOW  18  18 100 SE8       30.18F WCI   7
ORANGE CITY *  LGT SNOW  16  16 100 SE8       30.15F VSB 1   WCI   5
SHELDON *      PTSUNNY   16  12  86 SE9       30.15F FOG     WCI   4
SIOUX CITY     CLOUDY    19  12  74 SE12      30.17F WCI   7
SPENCER        LGT SNOW  14   9  80 SE12      30.18F VSB 1   WCI   0
STORM LAKE *   LGT SNOW  14  12  92 SE8       30.18S WCI   3
$$

IAZ055>058-069>071-079>083-090>094-112300-
   SOUTHWEST IOWA

CITY           SKY/WX    TMP DP  RH WIND       PRES   REMARKS
ATLANTIC *     CLOUDY    23  14  68 SE6       30.20R WCI  16
AUDUBON *      LGT SNOW  18  12  79 E7        30.20S VSB 3/4 WCI   8
CLARINDA *     CLOUDY    30  19  64 S6        30.21S WCI  24
COUNCIL BLFS * CLOUDY    25  19  80 SE3       30.17S
CRESTON *      MIX PCPN  27   9  46 SE9       30.20F WCI  17
HARLAN  *      FLURRIES  21  14  73 SE6       30.22F WCI  14
LAMONI         CLOUDY    26   8  46 SE6       30.21R WCI  19
RED OAK *      CLOUDY    30  19  64 SE7       30.18F WCI  23
SHENANDOAH *   MOSUNNY   32  19  59 S12       30.18F WCI  23
$$

IAZ047>049-059>061-072>074-084-112300-
   CENTRAL IOWA

CITY           SKY/WX    TMP DP  RH WIND       PRES   REMARKS
AMES           CLOUDY    18   4  54 E3        30.25S
ANKENY *       PTSUNNY   19   5  53 SE7       30.25S WCI  10
BOONE *        CLOUDY    16   5  62 SE3       30.23R
CHARITON *     CLOUDY    23   5  46 SE7       30.24S WCI  15
DES MOINES     FLURRIES  21   1  41 SE8       30.25S WCI  11
GRINNELL*      MOSUNNY   21  10  63 S5        30.25R WCI  15
KNOXVILLE *    CLOUDY    21   5  49 E3        30.24R
MARSHALLTOWN   CLOUDY    18   6  59 S6        30.25R WCI  10
NEWTON *       CLOUDY    19   5  53 S7        30.25S WCI  10
PELLA *        CLOUDY    21   7  53 S3        30.28R
$$

IAZ004>006-015-016-023>025-035-036-112300-
   NORTH CENTRAL IOWA

CITY           SKY/WX    TMP DP  RH WIND       PRES   REMARKS
ALGONA *       MOSUNNY   14   5  67 S9        30.23S HAZE    WCI   2
CLARION *      CLOUDY    14   3  62 S5        30.25S WCI   6
ESTHERVILLE    LGT SNOW  12   8  84 S10       30.20F FOG     WCI  -1
FORT DODGE *   CLOUDY    12   3  67 S5        30.25S WCI   4
MASON CITY     PTSUNNY   12   3  67 SW9       30.26R WCI   0
FOREST CITY *  CLOUDY    14   3  62 S8        30.24S WCI   3
WEBSTER CITY * LGT SNOW  16   3  57 S3        30.23S
IOWA FALLS *   PTSUNNY   16   5  62 S6        30.26R WCI   7
$$

IAZ007>011-017>019-026>030-037>042-050>054-066-112300-
   NORTHEAST IOWA

CITY           SKY/WX    TMP DP  RH WIND       PRES   REMARKS
CEDAR RAPIDS   PTSUNNY   21   6  52 S6        30.25F WCI  13
CHARLES CITY * PTSUNNY   14   1  57 S8        30.25S WCI   3
CLINTON *      SUNNY     25   5  42 NW3       30.29F
DECORAH *      CLOUDY    14   0  52 VRB6      30.23S WCI   5
DUBUQUE        SUNNY     18  -2  41 CALM      30.25F
MONTICELLO *   SUNNY     19   1  45 CALM      30.27F
OELWEIN *      SUNNY     14   1  57 S5        30.26S WCI   6
WATERLOO       CLOUDY    16   4  59 S7        30.26F WCI   6
$$

IAZ064-065-067-068-078-112300-
   EAST CENTRAL IOWA

CITY           SKY/WX    TMP DP  RH WIND       PRES   REMARKS
DAVENPORT      SUNNY     22   4  46 NW3       30.28F
IOWA CITY      MOSUNNY   22   5  48 VRB3      30.28F
MT. PLEASANT * SUNNY     27  10  50 NE5       30.27F WCI  21
MUSCATINE *    SUNNY     25   3  39 CALM      30.30S
QUAD CITIES    SUNNY     23   0  36 CALM      30.28F
$$

IAZ062-063-075>077-085>089-095>099-112300-
   SOUTHEAST IOWA

CITY           SKY/WX    TMP DP  RH WIND       PRES   REMARKS
BURLINGTON     SUNNY     24   6  46 SE3       30.28F
FAIRFIELD *    CLOUDY    23   5  46 SE6       30.26F WCI  16
FORT MADISON * MOSUNNY   23   7  50 SE3       30.28F
KEOKUK *       CLOUDY    23   9  54 SE5       30.28S WCI  17
OSKALOOSA *    CLOUDY    21   9  58 S5        30.27R WCI  15
CENTERVILLE *  MOSUNNY   23   9  54 CALM      30.25S
OTTUMWA        CLOUDY    23  10  57 E5        30.26S WCI  17
WASHINGTON *   MOSUNNY   23   5  46 E7        30.28F WCI  15
$$

ABBREVIATIONS USED IN REMARKS
   TC - TEMPERATURES IN CELSIUS
  WCI - WIND CHILL INDEX
   HX - HEAT INDEX
  VSB - VISIBILITY
$$




USA.gov is the U.S. government's official web portal to all federal, state and local government web resources and services.